Vorticity
20 5 21 -3 18 16 10 8 7 11 -2 34 33 -5 8 -10 -22 26 -11 -2 -0 1 10 47 7 5 -5 23 13 14 8 12 17 -20 4 14 -3 19 10 -18 27 13 -18 1
-55 11 27 14 5 27 7 17 19 34 12 -17 31 -1 19 3 5 19 12 7 12 6 9 -10 9 10 18 9 5 16 30 36 12 45 7 5 13 5 20 8 15 25 -1 16
26 20 -3 25 44 38 4 6 -1 18 10 -21 6 -12 32 9 -19 7 17 3 9 8 13 7 13 18 10 17 9 -7 18 13 7 -10 -0 20 9 -5 3 -1 7 -7 -15 14
1 -20 39 1 20 9 19 -19 38 47 45 -3 -23 30 -34 -7 0 -1 4 27 26 -11 12 9 32 35 27 15 6 3 -4 2 -4 -4 -5 -6 -1 -5 -16 -11 -4 6 4 4
0 -1 9 24 14 19 -18 7 0 -10 -10 20 9 22 8 3 -6 -10 4 16 12 7 2 -3 -22 34 11 5 13 11 8 10 19 7 -5 10 15 7 4 1 0 9 4 1
8 5 12 18 8 3 18 12 6 -4 1 36 -16 43 24 25 51 67 -4 -15 18 5 6 13 4 -1 7 10 13 13 5 15 15 25 24 21 37 14 14 25 31 18 7 10
11 11 8 5 6 6 6 11 15 15 12 -3 -1 -1 -3 23 11 -9 18 18 5 6 7 10 10 2 4 5 -2 17 15 -3 -0 9 -6 15 -12 4 -6 4 8 7 8 9
14 13 14 14 17 15 9 7 10 7 7 21 19 8 19 9 -6 11 11 7 14 11 4 5 18 26 17 18 22 -8 -7 1 -14 -19 17 -17 -4 -1 8 -7 28 -8 13 14
20 20 22 19 11 15 19 14 17 9 8 10 6 19 7 18 18 33 35 9 35 20 10 7 7 13 14 24 23 23 16 19 12 12 6 -7 9 23 15 -2 23 14 11 11
9 11 11 22 21 10 10 20 10 26 15 18 21 32 6 22 14 18 14 16 1 -2 9 10 11 6 18 3 0 26 15 10 -1 5 -8 19 5 3 24 34 19 -0 3 1
9 9 9 12 12 20 13 16 8 18 32 7 7 14 10 15 21 -7 18 2 9 6 5 11 -4 15 -6 -3 5 6 1 -4 27 23 7 19 19 3 13 -3 1 3 9 25
12 10 9 10 11 14 18 6 0 8 3 14 20 6 -2 3 3 7 12 5 23 9 3 8 13 2 13 22 15 14 10 -6 -4 -3 -14 -17 -14 -2 -17 -6 2 7 3 16
2 4 2 6 1 3 5 7 6 3 6 6 13 17 13 -1 -1 -3 -1 1 7 11 11 3 10 -12 23 8 12 5 5 0 2 5 19 10 -18 -2 6 16 10 10 21 5
11 16 6 13 11 12 12 13 12 12 14 4 16 11 8 11 7 11 9 -3 9 2 3 7 3 1 3 -1 -7 -4 -8 -1 -3 21 4 9 7 16 14 -3 4 2 -3 -3
15 17 14 14 12 11 12 11 11 11 2 27 14 11 16 13 12 11 11 7 1 7 13 -4 2 11 8 1 5 5 7 9 11 4 -7 7 9 7 8 7 6 2 1 2
11 10 10 8 8 8 9 8 8 7 9 8 12 11 6 12 23 16 10 14 19 17 8 4 4 2 2 7 6 8 11 21 23 22 32 18 11 9 5 9 -2 -5 -7 4
5 7 4 2 4 7 8 14 3 6 8 13 16 25 18 19 17 16 17 14 12 15 18 15 19 21 10 6 -2 28 9 14 6 -5 9 7 -1 21 16 25 18 9 10 15
5 -0 15 16 9 9 2 3 8 11 9 10 13 9 10 12 2 9 11 11 16 6 1 2 9 13 19 13 8 20 23 22 41 46 44 17 -3 2 3 2 16 19 10 15
10 8 8 8 5 2 6 13 12 8 13 8 11 8 15 23 7 13 10 1 2 15 8 17 33 20 -19 17 19 13 9 23 7 11 16 28 23 16 18 27 10 19 16 53
8 16 3 5 6 8 9 18 19 15 8 9 1 2 -1 4 25 8 19 22 23 9 18 27 15 1 24 60 60 43 28 10 6 -3 10 16 -4 71 72 47 -3 20 12 2
5 3 6 8 16 16 10 8 12 12 11 13 29 36 13 4 1 8 12 8 10 11 18 11 11 9 12 16 21 12 26 43 23 20 29 3 29 5 4 6 8 -5 6 8
9 12 18 5 6 9 6 14 11 7 12 13 5 4 12 18 20 14 19 16 13 8 10 15 13 8 0 14 4 21 22 35 29 15 -3 3 16 2 7 4 8 2 -2 10
11 -4 15 10 8 10 8 12 11 9 6 10 -4 16 11 10 20 10 12 9 11 5 20 10 4 10 -11 11 11 10 25 18 24 -1 8 10 18 -2 1 -1 17 10 6 15
9 -8 13 -0 19 14 12 1 9 4 5 11 6 13 7 8 13 11 10 11 10 11 12 7 17 10 13 17 17 14 12 15 17 8 7 11 16 21 7 6 18 12 10 12
4 -1 16 12 9 4 16 19 6 7 12 10 13 18 14 7 8 15 9 10 14 9 -0 12 2 6 12 15 11 13 17 12 11 14 15 16 18 16 15 8 16 11 7 8
2 12 9 21 15 14 11 4 5 13 12 6 8 16 11 15 9 15 8 6 8 5 10 9 1 3 6 11 11 9 10 11 11 15 16 14 12 13 14 14 13 11 7 9
10 12 4 -8 -14 -1 12 28 10 10 9 10 18 13 11 13 12 12 12 10 -3 -2 11 12 12 13 15 14 13 13 11 10 14 13 18 17 18 15 13 12 15 11 9 10
Height
2894 2904 2912 2922 2931 2941 2951 2954 2961 2962 2977 2988 2983 2988 2992 3004 3014 3014 3019 3022 3026 3031 3037 3042 3047 3046 3050 3051 3054 3057 3060 3063 3064 3066 3067 3070 3071 3073 3075 3075 3077 3077 3077 3077
2885 2895 2902 2908 2920 2922 2933 2943 2952 2958 2963 2966 2968 2980 2985 2996 3001 3006 3011 3015 3020 3026 3032 3037 3038 3039 3042 3045 3048 3050 3052 3057 3060 3062 3066 3066 3068 3070 3070 3070 3073 3072 3076 3070
2879 2889 2897 2905 2906 2912 2927 2934 2938 2948 2953 2953 2964 2975 2984 2988 2997 3001 3005 3009 3014 3020 3025 3027 3029 3031 3035 3040 3044 3045 3047 3050 3052 3054 3059 3063 3064 3064 3067 3069 3070 3069 3070 3068
2879 2885 2895 2901 2910 2915 2923 2927 2936 2940 2950 2957 2964 2974 2978 2986 2994 2995 2999 3004 3009 3016 3020 3023 3022 3025 3031 3036 3040 3041 3044 3047 3049 3050 3054 3056 3058 3060 3061 3063 3065 3067 3064 3065
2883 2889 2893 2903 2911 2917 2926 2931 2931 2941 2950 2959 2966 2969 2974 2984 2993 2993 2996 3003 3008 3013 3017 3020 3021 3021 3028 3032 3035 3037 3040 3043 3045 3047 3049 3054 3055 3052 3053 3056 3058 3057 3058 3052
2886 2891 2897 2903 2911 2918 2928 2932 2935 2938 2950 2959 2966 2969 2972 2978 2987 2989 2995 3001 3005 3009 3012 3014 3015 3018 3024 3028 3031 3033 3036 3038 3039 3043 3047 3051 3048 3044 3049 3050 3050 3051 3049 3047
2890 2894 2899 2905 2911 2917 2923 2929 2935 2938 2949 2957 2962 2968 2974 2977 2980 2983 2990 2996 2999 3003 3006 3009 3012 3015 3020 3024 3026 3030 3032 3034 3038 3042 3045 3049 3036 3042 3045 3044 3044 3043 3043 3043
2891 2895 2900 2904 2910 2917 2922 2926 2932 2937 2946 2954 2960 2965 2970 2972 2976 2981 2987 2992 2998 2999 3002 3006 3010 3013 3015 3018 3023 3027 3031 3034 3036 3038 3039 3038 3030 3034 3039 3039 3035 3037 3036 3035
2895 2898 2901 2906 2910 2915 2922 2927 2932 2937 2946 2952 2958 2962 2966 2969 2973 2978 2982 2985 2989 2994 2997 3000 3005 3009 3015 3018 3019 3022 3026 3031 3033 3032 3034 3033 3023 3028 3032 3032 3028 3029 3028 3027
2895 2900 2905 2908 2913 2920 2926 2929 2934 2939 2945 2950 2954 2959 2962 2967 2971 2973 2980 2984 2989 2992 2994 2997 3001 3004 3010 3014 3015 3017 3018 3022 3023 3023 3027 3023 3018 3021 3026 3025 3025 3020 3020 3020
2901 2904 2908 2911 2916 2922 2925 2929 2934 2941 2945 2949 2954 2957 2962 2968 2972 2973 2979 2983 2985 2989 2993 2995 2997 2996 3003 3006 3009 3011 3013 3015 3015 3018 3021 3018 3013 3017 3021 3018 3016 3015 3013 3014
2906 2910 2913 2915 2918 2920 2925 2930 2935 2940 2945 2952 2956 2959 2964 2967 2968 2974 2976 2978 2979 2985 2989 2991 2992 2993 2997 3000 3002 3006 3006 3008 3011 3012 3008 3008 3010 3011 3012 3010 3010 3007 3006 3007
2910 2914 2916 2918 2921 2925 2929 2932 2935 2939 2944 2950 2955 2960 2965 2968 2968 2967 2970 2972 2978 2983 2985 2986 2986 2988 2991 2994 2995 2997 2998 3001 3001 3002 2996 3000 3000 3001 3004 3006 3003 2999 2998 2998
2912 2915 2918 2921 2925 2928 2931 2934 2937 2942 2946 2950 2953 2955 2959 2961 2962 2966 2970 2972 2974 2977 2979 2980 2981 2983 2987 2988 2989 2989 2990 2990 2989 2987 2987 2989 2990 2992 2994 2993 2993 2991 2990 2990
2913 2916 2920 2923 2927 2930 2933 2936 2939 2942 2948 2948 2950 2953 2956 2958 2960 2963 2967 2970 2971 2974 2975 2974 2975 2978 2982 2980 2981 2975 2978 2979 2981 2977 2981 2982 2980 2982 2983 2982 2983 2983 2983 2982
2915 2918 2921 2925 2928 2931 2934 2937 2940 2942 2944 2947 2949 2951 2951 2953 2956 2959 2961 2965 2966 2967 2969 2969 2970 2973 2976 2971 2963 2959 2965 2968 2970 2967 2970 2971 2970 2971 2972 2972 2973 2974 2975 2973
2916 2920 2923 2926 2929 2931 2935 2938 2940 2941 2943 2945 2946 2946 2948 2950 2952 2954 2957 2959 2961 2963 2963 2961 2963 2964 2967 2961 2949 2948 2954 2956 2958 2958 2958 2956 2957 2956 2958 2959 2961 2962 2963 2962
2917 2921 2923 2926 2929 2932 2934 2936 2937 2939 2941 2943 2944 2945 2947 2948 2949 2951 2954 2955 2957 2957 2956 2955 2954 2955 2956 2945 2935 2941 2944 2945 2945 2943 2944 2945 2948 2949 2949 2950 2951 2952 2954 2954
2917 2921 2924 2926 2929 2932 2934 2935 2936 2938 2942 2941 2941 2943 2946 2946 2948 2950 2952 2953 2953 2953 2949 2949 2950 2945 2940 2933 2934 2934 2936 2936 2937 2936 2936 2937 2938 2939 2938 2939 2943 2945 2944 2940
2917 2921 2925 2927 2929 2931 2933 2933 2935 2936 2936 2937 2938 2941 2943 2945 2945 2948 2950 2949 2949 2947 2945 2945 2940 2935 2934 2928 2926 2927 2928 2929 2931 2931 2933 2934 2931 2930 2929 2931 2937 2938 2939 2940
2916 2921 2924 2927 2928 2930 2932 2933 2934 2935 2935 2935 2935 2936 2939 2942 2944 2946 2947 2946 2946 2944 2943 2941 2937 2933 2930 2928 2926 2923 2922 2922 2923 2926 2929 2928 2929 2930 2931 2933 2934 2936 2940 2942
2917 2921 2924 2927 2928 2930 2932 2932 2934 2934 2934 2934 2935 2936 2938 2940 2941 2943 2944 2943 2943 2940 2939 2938 2932 2930 2928 2927 2925 2923 2921 2921 2922 2925 2928 2928 2927 2929 2931 2933 2935 2939 2941 2942
2918 2921 2924 2926 2929 2929 2930 2930 2932 2932 2933 2934 2935 2937 2938 2938 2939 2940 2941 2940 2940 2939 2937 2934 2931 2928 2928 2927 2926 2924 2922 2922 2923 2925 2926 2927 2928 2931 2932 2935 2936 2937 2937 2938
2918 2920 2923 2924 2925 2926 2927 2929 2930 2932 2933 2933 2935 2936 2936 2936 2937 2937 2937 2938 2938 2936 2934 2931 2928 2929 2928 2926 2925 2924 2923 2923 2923 2923 2924 2925 2926 2928 2930 2932 2932 2934 2934 2935
2917 2920 2921 2922 2923 2925 2926 2927 2929 2931 2931 2932 2933 2933 2934 2935 2935 2935 2935 2935 2934 2932 2931 2929 2929 2929 2929 2927 2926 2924 2923 2923 2923 2923 2923 2924 2924 2925 2927 2929 2929 2931 2932 2932
2916 2918 2919 2920 2922 2923 2924 2925 2927 2927 2929 2930 2931 2931 2932 2932 2933 2932 2932 2933 2932 2930 2929 2929 2928 2928 2927 2926 2925 2924 2924 2923 2922 2922 2921 2922 2922 2923 2924 2926 2927 2928 2929 2929
2914 2916 2918 2919 2920 2922 2923 2923 2925 2926 2927 2928 2929 2930 2930 2931 2930 2929 2929 2929 2929 2929 2929 2928 2927 2926 2926 2925 2924 2923 2923 2922 2921 2920 2919 2919 2920 2921 2922 2923 2924 2925 2926 2927